Location: Lafig�re
(44.4503°N, 4.0357°E)
Time: 08:13:02
(UTC+00:00)

Cosmos 1092 Rocket - Pass Details

Date: 27 January 2021
Orbit: 954 x 994 km, 83.0° (Epoch: 08 March)

Event Time Altitude Azimuth Distance (km) Brightness Sun altitude
Rises 18:01:26 0° 189° (S) 3,644 7.3 -13.5°
Reaches altitude 10° 18:03:56 10° 190° (S) 2,696 6.6 -13.9°
Maximum altitude 18:10:06 82° 277° (W) 975 4.1 -15.0°
Drops below altitude 10° 18:16:17 10° 6° (N) 2,696 6.2 -16.1°
Sets 18:18:48 0° 8° (N) 3,644 6.8 -16.5°
